Hourly Data Report for October 28, 2019

EUREKA CLIMATE
NUNAVUT
Current Station Operator: ECCC - MSC

79°59'21.000" N
85°56'02.000" W
10.00 m
2401199
71613
NEK

Download Data

Hourly Data (October 2019)
Hourly Data Report for October 28, 2019
TIME Temp Definition
°C
Dew Point Definition
°C
Rel Hum Definition
%
Wind Dir Definition
10's deg

Wind Spd Definition
km/h
Visibility Definition
km
Stn Press Definition
kPa
Hmdx Definition


Wind Chill Definition


Weather Definition


00:00 -17.4 -19.9 81 29 20   102.97   -27 LegendNANA
01:00 -17.2 -19.6 82 27 16   103.01   -26 LegendNANA
02:00 -17.9 -20.0 84 29 21   103.07   -28 LegendNANA
03:00 -18.1 -20.2 83 29 18   103.13   -28 LegendNANA
04:00 -20.5 -22.6 83 12 8   103.20   -27 LegendNANA
05:00 -21.2 -23.1 84 10 12   103.25   -29 LegendNANA
06:00 -21.6 -23.4 85 11 12   103.27   -30 LegendNANA
07:00 -22.1 -24.2 83 6 10   103.31   -30 LegendNANA
08:00 -22.9 -24.9 84 6 4   103.34   -27 LegendNANA
09:00 -23.2 -25.2 84 7 4   103.35   -27 LegendNANA
10:00 -23.3 -25.2 84 7 7   103.37   -29 LegendNANA
11:00 -24.7 -26.9 82 4 8   103.39   -32 LegendNANA
12:00 -24.4 -26.4 83 6 5   103.41   -29 LegendNANA
13:00 -25.6 -27.8 82 3 13   103.44   -35 LegendNANA
14:00 -25.3 -27.4 82 2 11   103.44   -34 LegendNANA
15:00 -23.8 -25.7 84 5 3   103.44   -27 LegendNANA
16:00 -23.8 -25.9 83 2 7   103.45   -30 LegendNANA
17:00 -23.6 -25.6 84 3 9   103.44   -31 LegendNANA
18:00 -23.2 -25.2 83 4 6   103.40   -29 LegendNANA
19:00 -22.5 -24.4 84 9 3   103.39   -25 LegendNANA
20:00 -22.1 -24.0 85 11 4   103.35   -26 LegendNANA
21:00 -21.6 -23.5 85 10 3   103.33   -24 LegendNANA
22:00 -21.2 -23.0 86 10 4   103.28   -25 LegendNANA
23:00 -20.4 -22.1 86 11 3   103.25   -23 LegendNANA

Notes on Data Quality.

Legend

  • E = Estimated
  • M = Missing
  • NA = Not Available*
  • [empty] = Indicates an unobserved value
Date modified: